Weather History for KBBW - September, 2012

Change the Weather History Date:

Sunday, September 30, 2012

  Actual Average Record
Temperature  
Mean Temperature 61 °F 56 °F  
Max Temperature 81 °F 70 °F 92 °F (1994)
Min Temperature 40 °F 42 °F 18 °F (1984)
Degree Days  
Heating Degree Days 4 10  
Month to date heating degree days 142 151  
Cooling Degree Days 0 1  
Month to date cooling degree days 65 66  
Year to date cooling degree days 1077 762  
Growing Degree Days 10 (Base 50)    
Moisture  
Dew Point 48 °F    
Average Humidity 65    
Maximum Humidity 93    
Minimum Humidity 36    
Precipitation  
Precipitation 0.00 in 0.05 in 1.33 in (1904)
Sea Level Pressure  
Sea Level Pressure 29.97 in    
Wind  
Wind Speed 4 mph (SE)    
Max Wind Speed 18 mph    
Max Gust Speed 22 mph    
Visibility 10 miles    
Events Thunderstorm    
T = Trace of Precipitation, MM = Missing Value Source: NWS Daily Summary

Daily Weather History Graph

Daily Weather History Graph

Search for Another Location

Airport or City:

Trip Planner

Search our weather history database for the weather conditions in past years. The results will help you decide how hot, cold, wet, or windy it might be!

Date:

Astronomy

Sep. 30, 2012 Rise Set
Actual Time 7:34 AM CDT 7:21 PM CDT
Civil Twilight 7:07 AM CDT 7:48 PM CDT
Nautical Twilight 6:35 AM CDT 8:20 PM CDT
Astronomical Twilight 6:02 AM CDT 8:53 PM CDT
Moon 7:24 PM CDT (9/30) 8:08 AM CDT (9/30)
Length of Visible Light 12h 41m
Length of Day
11h 46m
Full, 100% of the Moon is Illuminated
Sep 30
Full
Oct 8
Last Quarter
Oct 15
New
Oct 21
First Quarter
Oct 29
Full

Hourly Weather History & Observations

Time (CDT) Temp. Windchill Dew Point Humidity Pressure Visibility Wind Dir Wind Speed Gust Speed Precip Events Conditions
12:53 AM 43.0 °F - 35.1 °F 74% 30.05 in 10.0 mi Calm Calm - N/A   Clear
1:53 AM 42.1 °F - 35.1 °F 76% 30.05 in 10.0 mi Calm Calm - N/A   Clear
2:53 AM 41.0 °F - 36.0 °F 82% 30.05 in 10.0 mi Calm Calm - N/A   Clear
3:53 AM 41.0 °F - 36.0 °F 82% 30.02 in 10.0 mi Calm Calm - N/A   Clear
4:53 AM 42.1 °F 40.2 °F 37.0 °F 82% 30.00 in 10.0 mi ESE 3.5 mph - N/A   Clear
5:53 AM 41.0 °F - 37.0 °F 86% 29.99 in 10.0 mi Calm Calm - N/A   Clear
6:53 AM 43.0 °F - 39.0 °F 86% 29.99 in 10.0 mi Calm Calm - N/A   Clear
7:53 AM 46.9 °F - 44.1 °F 90% 30.01 in 9.0 mi Calm Calm - N/A   Clear
8:53 AM 54.0 °F - 48.0 °F 80% 30.01 in 10.0 mi Calm Calm - N/A   Clear
9:53 AM 64.9 °F - 55.0 °F 70% 30.00 in 10.0 mi SSW 6.9 mph - N/A   Clear
10:53 AM 69.1 °F - 55.9 °F 63% 29.99 in 10.0 mi SSW 10.4 mph - N/A   Clear
11:53 AM 73.0 °F - 54.0 °F 51% 29.97 in 10.0 mi SSW 10.4 mph - N/A   Clear
12:53 PM 75.9 °F - 51.1 °F 42% 29.95 in 10.0 mi South 8.1 mph - N/A   Clear
1:53 PM 77.0 °F - 52.0 °F 42% 29.94 in 10.0 mi Calm Calm - N/A   Clear
2:53 PM 79.0 °F - 52.0 °F 39% 29.92 in 10.0 mi Variable 3.5 mph - N/A   Scattered Clouds
3:53 PM 80.1 °F - 51.1 °F 36% 29.91 in 10.0 mi SE 5.8 mph - N/A   Partly Cloudy
4:53 PM 78.1 °F - 51.1 °F 39% 29.90 in 10.0 mi ESE 5.8 mph - N/A   Clear
5:22 PM 75.2 °F - 51.8 °F 44% 29.92 in 10.0 mi ESE 4.6 mph - N/A Thunderstorm Scattered Clouds
5:53 PM 72.0 °F - 53.1 °F 51% 29.91 in 10.0 mi East 10.4 mph - N/A   Mostly Cloudy
6:18 PM 71.6 °F - 55.4 °F 57% 29.93 in 10.0 mi ENE 3.5 mph - N/A Thunderstorm Scattered Clouds
6:33 PM 69.8 °F - 55.4 °F 60% 29.93 in 10.0 mi East 5.8 mph - N/A   Clear
6:53 PM 69.1 °F - 55.9 °F 63% 29.91 in 10.0 mi East 3.5 mph - N/A   Clear
7:53 PM 64.9 °F - 53.1 °F 65% 29.93 in 10.0 mi Calm Calm - N/A   Clear
8:53 PM 61.0 °F - 51.1 °F 70% 29.95 in 10.0 mi North 5.8 mph - N/A   Scattered Clouds
9:53 PM 57.2 °F - 50.0 °F 77% 29.98 in 10.0 mi Calm Calm - N/A   Clear
10:53 PM 52.0 °F - 48.0 °F 86% 29.96 in 10.0 mi Calm Calm - N/A   Clear
11:53 PM 53.1 °F - 46.0 °F 77% 29.95 in 10.0 mi Calm Calm - N/A   Clear